{"data":{"norad_id":51750,"epoch":"2026-05-24T22:39:35.920800Z","epoch_age_seconds":80025,"freshness":"FRESH","line1":"1 51750U 22016AN  26144.94416575  .00000417  00000+0  44278-4 0  9997","line2":"2 51750  53.2156 326.8124 0001466  89.6918 270.4242 15.08839403235211","mean_motion":15.08839403,"eccentricity":0.0001466,"inclination_deg":53.2156,"raan_deg":326.8124,"arg_perigee_deg":89.6918,"mean_anomaly_deg":270.4242,"bstar":4.4278e-5,"rev_number":23521,"period_min":95.437592439386,"perigee_km":538.73105222234,"apogee_km":540.75937528741,"semimajor_km":6917.8822137549,"source":"CELESTRAK","updated_at":"2026-05-25T13:38:16.947056Z"}}